User: anonymous   Login
Location: Unspecified
(0.0000°N, 0.0000°E)
Time: 21:30:20
(UTC+00:00)
Language:

STARLINK-36165 - Orbit

View from above orbital plane
View from above orbital plane
View from above satellite
View from above satellite

Ground track
Ground track

The orbit is defined by the following mean orbital elements,

1 66937U          26145.32068972 +.00000000 +00000-0 +61834-3 0 00004
2 66937  53.1610   2.2000 0001367  84.0759 276.0399 15.34409489    06
Epoch (UTC): 25 May 2026 07:41:47
Eccentricity: 0.0001367
inclination: 53.1610°
perigee height: 462 km
apogee height: 464 km
right ascension of ascending node: 2.2000°
argument of perigee: 84.0759°
revolutions per day: 15.34409489
mean anomaly at epoch: 276.0399°

The dashed part of the orbit path shows where the satellite is in the earth's shadow,  

DLR